Showing default

TJS-6, 47613

Orbit data source: Space-Track

TJS-6, 47613 is a payload satellite owned by CASC (CN) in GEO that was launched on Thu, 04 Feb 2021 UTC via a CHANG ZHENG 3B launch vehicle from the Xichang Space Center, China (XSC). Payload-class satellites include a variety of spacecraft equipped with specific instruments for various scientific and technological missions. These include communications satellites like Starlink; space stations such as the ISS; scientific satellites like the Hubble; Earth observation satellites from companies like Planet Labs, Umbra, and HawkEye 360; GPS; miniature CubeSats for education and research; and military/defense satellites.

Not visible in the next 10 days
Identifier
47613, 2021-010A
Orbit
GEO
Country
Flag of CNCN / PRC
Related business
Manufacturer
SISE
Mission
Operational Defense Early Warn
Bus & Motor
FY-4?, Unknown motor
Mass
~4,000 kg wet, ~2,500 kg dry
Launch date (UTC)
2021-02-04 (5 years ago)
Launch vehicle
CHANG ZHENG 3B
Launch site
Xichang Space Center, China (XSC)
Object type
Payload
Rocket body
Debris
Shape & HBR
Box + 2 Pan, 15.0 m
Radar Cross Section
34.063 m², Large (>1 m²)

Expand to show TLE details & history
Last TLE update: 12 hours ago

TLE from 12 hours ago
0 TJS-6
1 47613U 21010A   26195.16663516  .00000036  00000-0  00000+0 0  9990
2 47613   0.1842 261.9336 0003051 240.6116  27.9342  1.00272254 20076
Epoch: 2026-07-14T03:59Z
TLE epoch observation values (Epoch: 2026-07-14T03:59:57.277Z)
Latitude
-0.16356°
Longitude
178.48277°
Altitude
35,774.619 km
Speed
3.076 km/s
True Right ascension
11h 22m 02s
True Declination
0° 09' 48"
Sunlit
Object was in daylight at epoch
Visualization orbit readout
Latitude
Unknown
Longitude
Unknown
Altitude
Unknown
Speed
Unknown
Apparent Right ascension
Unknown
Apparent Declination
Unknown
Sunlit
N/A
Visualization observer readout
Local Sidereal Time
04:21:44
Azimuth
Unknown
Elevation
Unknown
Doppler factor
Unknown
Orbital elements
Apogee altitude
35,800.399 km
Perigee altitude
35,774.669 km
Semi-major axis
42,165.671 km
Eccentricity
0.00031
Inclination
0.1842°
RAAN
261.9336°
Arg. of periapsis
240.6116°
True anomaly
27.95058°
Mean anomaly
27.9342°
Eccentric anomaly
27.94239°
Mean motion
0.25067 °/min
Orbital period
1,436.14 mins
BSTAR
0
Loading maneuver chart data...
Computing Atmospheric mass density...
Loading historical data...
Loading historical data...
Loading historical data...
Loading historical data...
Loading historical data...
Loading historical data...
Loading historical data...
Other satellites on launch #10 in the year 2021 (2021-02-04 UTC)

Documentation

Showing up to 5 results
|